Regional Weather Roundup
Issued by NWS

Home | Current Version | Previous Version | Text Only | Print | Product List | Glossary On
Versions: 1 2 3 4 5 6 7 8 9 10 11 12 13 14 15 16 17 18 19 20 21 22 23 24 25 26 27 28
000
ASUS45 KBOI 200510
RWRID

IDAHO REGIONAL WEATHER ROUNDUP
NATIONAL WEATHER SERVICE BOISE ID
1100 PM MDT THU APR 19 2018

NOTE: "FAIR" INDICATES FEW OR NO CLOUDS BELOW 12000 FEET
WITH NO SIGNIFICANT WEATHER AND/OR OBSTRUCTIONS TO VISIBILITY

IDZ012-014-200600-
SOUTHWEST IDAHO


CITY           SKY/WX    TMP DP  RH WIND       PRES   REMARKS
BOISE          CLEAR     55  28  35 NW16      29.97R
CALDWELL       CLEAR     54  32  43 W16       30.01R
MOUNTAIN HOME  CLOUDY    54  29  38 NW23      29.94R
$$

IDZ016-017-200600-
SOUTHCENTRAL IDAHO


CITY           SKY/WX    TMP DP  RH WIND       PRES   REMARKS
BURLEY         PTCLDY    47  32  56 W10       29.89R
JEROME         CLOUDY    47  34  60 NW8       29.93R
TWIN FALLS     MOCLDY    46  34  62 SW15      29.94R
$$

IDZ019>023-200600-
SOUTHEAST IDAHO


CITY           SKY/WX    TMP DP  RH WIND       PRES   REMARKS
IDAHO FALLS    PTCLDY    48  27  44 N18       29.90R
POCATELLO      CLEAR     49  25  39 NE5       29.89R
REXBURG        PTCLDY    48  27  44 N14       29.91R
$$

IDZ006-010-011-018-031-032-200600-
CENTRAL IDAHO MOUNTAINS


CITY           SKY/WX    TMP DP  RH WIND       PRES   REMARKS
MCCALL         CLEAR     44  26  49 VRB7G21   30.09R
HAILEY         PTCLDY    46  30  53 NW9       29.99R
STANLEY          N/A     32  25  75 S6        30.06R WCI  26
SALMON         MOCLDY    49  24  37 N6        30.04R
CHALLIS        PTCLDY    49  23  36 N8        30.03R
$$

IDZ002-004-006-007-026-200600-
NORTHERN IDAHO


CITY           SKY/WX    TMP DP  RH WIND       PRES   REMARKS
LEWISTON       CLEAR     54  32  43 W9        30.14R
LOWELL           N/A     45  40  82 CALM      30.16R
COEUR D`ALENE  CLEAR     44  33  65 SW7       30.13R
MULLAN PASS    CLEAR     36  22  56 N6        30.14R WCI  31
$$




USA.gov is the U.S. government's official web portal to all federal, state and local government web resources and services.